,,,PA_Meas_PMT16A,,PR_Meas_QMR101_102,,RH_Meas_QMH101,,SR_Meas_QMS101,,TA_Meas_QMH101,,GenWind,,GenWind,
date,time,status,PA,status,PR,status,RH,status,SR,status,TA,status,DirAvg,status,SpdAvg,
2010-08-23, 00:00:04,VALID,1009.11,VALID,0,VALID,99.6686,VALID,0.105969,VALID,24.1793,VALID,341,VALID,0,
2010-08-23, 00:01:04,VALID,1009.12,VALID,0,VALID,100.012,VALID,0.105969,VALID,24.2202,VALID,341,VALID,0,
2010-08-23, 00:02:04,VALID,1009.09,VALID,0,VALID,100.187,VALID,0,VALID,24.1988,VALID,341,VALID,0,
2010-08-23, 00:03:04,VALID,1009.08,VALID,0,VALID,100.065,VALID,0.105969,VALID,24.1793,VALID,341,VALID,0,
2010-08-23, 00:04:04,VALID,1009.1,VALID,0,VALID,99.8897,VALID,0.105969,VALID,24.1599,VALID,341,VALID,0,
2010-08-23, 00:05:04,VALID,1009.08,VALID,0,VALID,99.966,VALID,0.105969,VALID,24.1599,VALID,341,VALID,0,
2010-08-23, 00:06:04,VALID,1009.05,VALID,0,VALID,100.019,VALID,0.105969,VALID,24.1599,VALID,341,VALID,0,
2010-08-23, 00:07:04,VALID,1009.06,VALID,0,VALID,99.9584,VALID,0.105969,VALID,24.1599,VALID,341,VALID,0,
2010-08-23, 00:08:04,VALID,1009.01,VALID,0,VALID,100.05,VALID,0.105969,VALID,24.1793,VALID,341,VALID,0,
2010-08-23, 00:09:04,VALID,1009.02,VALID,0,VALID,100.149,VALID,0,VALID,24.1812,VALID,341,VALID,0,
2010-08-23, 00:10:04,VALID,1009.02,VALID,0,VALID,100.294,VALID,0.105969,VALID,24.1793,VALID,341,VALID,0,
2010-08-23, 00:11:04,VALID,1009.01,VALID,0,VALID,100.34,VALID,0.105969,VALID,24.2007,VALID,341,VALID,0,
2010-08-23, 00:12:04,VALID,1008.99,VALID,0,VALID,100.172,VALID,0.105969,VALID,24.1793,VALID,341,VALID,0,
2010-08-23, 00:13:04,VALID,1008.96,VALID,0,VALID,100.233,VALID,0.105969,VALID,24.1988,VALID,341,VALID,0,
2010-08-23, 00:14:04,VALID,1008.94,VALID,0,VALID,100.507,VALID,0.105969,VALID,24.1988,VALID,341,VALID,0,
2010-08-23, 00:15:04,VALID,1008.94,VALID,0,VALID,100.439,VALID,0.105969,VALID,24.2202,VALID,341,VALID,0,
2010-08-23, 00:16:04,VALID,1008.95,VALID,0,VALID,100.523,VALID,0,VALID,24.2202,VALID,341,VALID,0,
2010-08-23, 00:17:04,VALID,1008.93,VALID,0,VALID,100.599,VALID,0,VALID,24.2007,VALID,341,VALID,0,
2010-08-23, 00:18:04,VALID,1008.91,VALID,0,VALID,100.683,VALID,0,VALID,24.2202,VALID,341,VALID,0,
2010-08-23, 00:19:04,VALID,1008.91,VALID,0,VALID,100.66,VALID,0,VALID,24.2202,VALID,341,VALID,0,
2010-08-23, 00:20:04,VALID,1008.89,VALID,0,VALID,100.645,VALID,0.105969,VALID,24.2183,VALID,341,VALID,0,
2010-08-23, 00:21:04,VALID,1008.87,VALID,0,VALID,100.729,VALID,0.105969,VALID,24.2183,VALID,341,VALID,0,
2010-08-23, 00:22:04,VALID,1008.88,VALID,0,VALID,100.812,VALID,0.105969,VALID,24.1988,VALID,341,VALID,0,
2010-08-23, 00:23:04,VALID,1008.88,VALID,0,VALID,100.851,VALID,0.105969,VALID,24.2202,VALID,341,VALID,0,
2010-08-23, 00:24:04,VALID,1008.87,VALID,0,VALID,100.904,VALID,0,VALID,24.2396,VALID,341,VALID,0,
2010-08-23, 00:25:04,VALID,1008.85,VALID,0,VALID,101.011,VALID,0,VALID,24.2183,VALID,341,VALID,0,
2010-08-23, 00:26:04,VALID,1008.86,VALID,0,VALID,101.102,VALID,0.105969,VALID,24.2183,VALID,341,VALID,0,
2010-08-23, 00:27:04,VALID,1008.88,VALID,0,VALID,101.171,VALID,0.105969,VALID,24.2183,VALID,341,VALID,0,
2010-08-23, 00:28:04,VALID,1008.88,VALID,0,VALID,101.217,VALID,0,VALID,24.2183,VALID,341,VALID,0,
2010-08-23, 00:29:04,VALID,1008.9,VALID,0,VALID,101.148,VALID,0.105969,VALID,24.2183,VALID,341,VALID,0,
2010-08-23, 00:30:04,VALID,1008.89,VALID,0,VALID,101.11,VALID,0.105969,VALID,24.2183,VALID,341,VALID,0,
2010-08-23, 00:31:04,VALID,1008.89,VALID,0,VALID,101.201,VALID,0,VALID,24.2396,VALID,341,VALID,0,
2010-08-23, 00:32:04,VALID,1008.87,VALID,0,VALID,101.163,VALID,0,VALID,24.2183,VALID,341,VALID,0,
2010-08-23, 00:33:04,VALID,1008.87,VALID,0,VALID,101.14,VALID,0.105969,VALID,24.2786,VALID,341,VALID,0,
2010-08-23, 00:34:04,VALID,1008.86,VALID,0,VALID,101.339,VALID,0.105969,VALID,24.2981,VALID,341,VALID,0,
2010-08-23, 00:35:04,VALID,1008.84,VALID,0,VALID,101.194,VALID,0.105969,VALID,24.2573,VALID,341,VALID,0,
2010-08-23, 00:36:04,VALID,1008.83,VALID,0,VALID,100.98,VALID,0,VALID,24.2786,VALID,341,VALID,0,
2010-08-23, 00:37:04,VALID,1008.82,VALID,0,VALID,100.873,VALID,0,VALID,24.2768,VALID,341,VALID,0,
2010-08-23, 00:38:04,VALID,1008.79,VALID,0,VALID,100.881,VALID,0,VALID,24.3176,VALID,341,VALID,0,
2010-08-23, 00:39:04,VALID,1008.77,VALID,0,VALID,101.034,VALID,0,VALID,24.3371,VALID,341,VALID,0,
2010-08-23, 00:40:04,VALID,1008.77,VALID,0,VALID,101.095,VALID,0.105969,VALID,24.3371,VALID,341,VALID,0,
2010-08-23, 00:41:04,VALID,1008.76,VALID,0,VALID,101.178,VALID,0.105969,VALID,24.3352,VALID,341,VALID,0,
2010-08-23, 00:42:04,VALID,1008.72,VALID,0,VALID,101.293,VALID,0.105969,VALID,24.3352,VALID,341,VALID,0,
2010-08-23, 00:43:04,VALID,1008.7,VALID,0,VALID,101.392,VALID,0.105969,VALID,24.3352,VALID,341,VALID,0,
2010-08-23, 00:44:04,VALID,1008.68,VALID,0,VALID,101.301,VALID,0.105969,VALID,24.3158,VALID,341,VALID,0,
2010-08-23, 00:45:04,VALID,1008.67,VALID,0,VALID,101.308,VALID,0.105969,VALID,24.3352,VALID,341,VALID,0,
2010-08-23, 00:46:04,VALID,1008.62,VALID,0,VALID,101.362,VALID,0.105969,VALID,24.3352,VALID,341,VALID,0,
2010-08-23, 00:47:04,VALID,1008.64,VALID,0,VALID,101.301,VALID,0.105969,VALID,24.3352,VALID,341,VALID,0,
2010-08-23, 00:48:04,VALID,1008.59,VALID,0,VALID,101.255,VALID,0.105969,VALID,24.3566,VALID,341,VALID,0,
2010-08-23, 00:49:04,VALID,1008.57,VALID,0,VALID,101.117,VALID,0,VALID,24.3566,VALID,341,VALID,0,
2010-08-23, 00:50:04,VALID,1008.55,VALID,0,VALID,101.072,VALID,0,VALID,24.3547,VALID,341,VALID,0,
2010-08-23, 00:51:04,VALID,1008.53,VALID,0,VALID,101.11,VALID,0,VALID,24.3547,VALID,341,VALID,0,
2010-08-23, 00:52:04,VALID,1008.57,VALID,0,VALID,101.194,VALID,0,VALID,24.3352,VALID,341,VALID,0,
2010-08-23, 00:53:04,VALID,1008.52,VALID,0,VALID,101.232,VALID,0.105969,VALID,24.3566,VALID,341,VALID,0,
2010-08-23, 00:54:04,VALID,1008.53,VALID,0,VALID,101.186,VALID,0,VALID,24.3158,VALID,341,VALID,0,
2010-08-23, 00:55:04,VALID,1008.52,VALID,0,VALID,101.163,VALID,0,VALID,24.3176,VALID,341,VALID,0,
2010-08-23, 00:56:04,VALID,1008.52,VALID,0,VALID,101.14,VALID,0,VALID,24.2981,VALID,341,VALID,0,
2010-08-23, 00:57:04,VALID,1008.5,VALID,0,VALID,101.064,VALID,0,VALID,24.2981,VALID,341,VALID,0,
2010-08-23, 00:58:04,VALID,1008.47,VALID,0,VALID,101.125,VALID,0,VALID,24.2591,VALID,341,VALID,0,
2010-08-23, 00:59:04,VALID,1008.45,VALID,0,VALID,101.163,VALID,0,VALID,24.2591,VALID,341,VALID,0,
2010-08-23, 01:00:04,VALID,1008.44,VALID,0,VALID,101.232,VALID,0.105969,VALID,24.2396,VALID,341,VALID,0,
2010-08-23, 01:01:04,VALID,1008.4,VALID,0,VALID,101.323,VALID,0,VALID,24.1988,VALID,341,VALID,0,
2010-08-23, 01:02:04,VALID,1008.39,VALID,0,VALID,101.339,VALID,0,VALID,24.1793,VALID,341,VALID,0,
2010-08-23, 01:03:04,VALID,1008.37,VALID,0,VALID,101.415,VALID,0.105969,VALID,24.1793,VALID,341,VALID,0,
2010-08-23, 01:04:04,VALID,1008.35,VALID,0,VALID,101.476,VALID,0,VALID,24.1793,VALID,341,VALID,0,
2010-08-23, 01:05:04,VALID,1008.34,VALID,0,VALID,101.552,VALID,0,VALID,24.1812,VALID,341,VALID,0,
2010-08-23, 01:06:04,VALID,1008.31,VALID,0,VALID,101.659,VALID,0.105969,VALID,24.1599,VALID,341,VALID,0,
2010-08-23, 01:07:04,VALID,1008.28,VALID,0,VALID,101.606,VALID,0.105969,VALID,24.1209,VALID,341,VALID,0,
2010-08-23, 01:08:04,VALID,1008.27,VALID,0,VALID,101.621,VALID,0.105969,VALID,24.1227,VALID,341,VALID,0,
2010-08-23, 01:09:04,VALID,1008.25,VALID,0,VALID,101.659,VALID,0.105969,VALID,24.1209,VALID,341,VALID,0,
2010-08-23, 01:10:04,VALID,1008.27,VALID,0,VALID,101.728,VALID,0,VALID,24.1014,VALID,341,VALID,0,
2010-08-23, 01:11:04,VALID,1008.23,VALID,0,VALID,101.781,VALID,0.105969,VALID,24.1032,VALID,341,VALID,0,
2010-08-23, 01:12:04,VALID,1008.23,VALID,0,VALID,101.811,VALID,0,VALID,24.0819,VALID,341,VALID,0,
2010-08-23, 01:13:04,VALID,1008.23,VALID,0,VALID,101.842,VALID,0,VALID,24.0837,VALID,341,VALID,0,
2010-08-23, 01:14:04,VALID,1008.2,VALID,0,VALID,101.903,VALID,0,VALID,24.0643,VALID,341,VALID,0,
2010-08-23, 01:15:04,VALID,1008.18,VALID,0,VALID,101.964,VALID,0,VALID,24.0643,VALID,341,VALID,0,
2010-08-23, 01:16:04,VALID,1008.21,VALID,0,VALID,101.987,VALID,0,VALID,24.0837,VALID,341,VALID,0,
2010-08-23, 01:17:04,VALID,1008.17,VALID,0,VALID,102.04,VALID,0,VALID,24.0643,VALID,341,VALID,0,
2010-08-23, 01:18:04,VALID,1008.16,VALID,0,VALID,102.055,VALID,0,VALID,24.0448,VALID,341,VALID,0,
2010-08-23, 01:19:04,VALID,1008.13,VALID,0,VALID,102.063,VALID,0,VALID,24.0643,VALID,341,VALID,0,
2010-08-23, 01:20:04,VALID,1008.16,VALID,0,VALID,102.094,VALID,0.105969,VALID,24.0429,VALID,341,VALID,0,
2010-08-23, 01:21:04,VALID,1008.17,VALID,0,VALID,102.116,VALID,0.105969,VALID,24.0429,VALID,341,VALID,0,
2010-08-23, 01:22:04,VALID,1008.18,VALID,0,VALID,102.124,VALID,0,VALID,24.0448,VALID,341,VALID,0,
2010-08-23, 01:23:04,VALID,1008.19,VALID,0,VALID,102.109,VALID,0,VALID,24.0429,VALID,341,VALID,0,
2010-08-23, 01:24:04,VALID,1008.19,VALID,0,VALID,102.162,VALID,0.105969,VALID,24.0624,VALID,341,VALID,0,
2010-08-23, 01:25:04,VALID,1008.2,VALID,0,VALID,102.185,VALID,0,VALID,24.0235,VALID,341,VALID,0,
2010-08-23, 01:26:04,VALID,1008.21,VALID,0,VALID,102.162,VALID,0.105969,VALID,24.0448,VALID,341,VALID,0,
2010-08-23, 01:27:04,VALID,1008.18,VALID,0,VALID,102.2,VALID,0,VALID,24.0235,VALID,341,VALID,0,
2010-08-23, 01:28:04,VALID,1008.19,VALID,0,VALID,102.193,VALID,0,VALID,24.004,VALID,341,VALID,0,
2010-08-23, 01:29:04,VALID,1008.2,VALID,0,VALID,102.193,VALID,0,VALID,24.0448,VALID,341,VALID,0,
2010-08-23, 01:30:04,VALID,1008.2,VALID,0,VALID,102.17,VALID,0,VALID,24.0448,VALID,341,VALID,0,
2010-08-23, 01:31:04,VALID,1008.16,VALID,0,VALID,102.162,VALID,0,VALID,24.0448,VALID,341,VALID,0,
2010-08-23, 01:32:04,VALID,1008.17,VALID,0,VALID,102.132,VALID,0.105969,VALID,24.004,VALID,341,VALID,0,
2010-08-23, 01:33:04,VALID,1008.17,VALID,0,VALID,102.124,VALID,0.105969,VALID,24.0448,VALID,341,VALID,0,
2010-08-23, 01:34:04,VALID,1008.16,VALID,0,VALID,102.109,VALID,0,VALID,23.9845,VALID,341,VALID,0,
2010-08-23, 01:35:04,VALID,1008.17,VALID,0,VALID,102.094,VALID,0,VALID,24.0058,VALID,341,VALID,0,
2010-08-23, 01:36:04,VALID,1008.18,VALID,0,VALID,102.116,VALID,0,VALID,24.0058,VALID,341,VALID,0,
2010-08-23, 01:37:04,VALID,1008.17,VALID,0,VALID,102.063,VALID,0,VALID,24.0058,VALID,341,VALID,0,
2010-08-23, 01:38:04,VALID,1008.16,VALID,0,VALID,102.124,VALID,0,VALID,23.9845,VALID,341,VALID,0,
2010-08-23, 01:39:04,VALID,1008.16,VALID,0,VALID,102.116,VALID,0,VALID,23.965,VALID,341,VALID,0,
2010-08-23, 01:40:04,VALID,1008.16,VALID,0,VALID,102.055,VALID,0,VALID,23.9668,VALID,341,VALID,0,
2010-08-23, 01:41:04,VALID,1008.14,VALID,0,VALID,102.033,VALID,0,VALID,23.965,VALID,341,VALID,0,
2010-08-23, 01:42:04,VALID,1008.14,VALID,0,VALID,101.987,VALID,0.105969,VALID,23.9863,VALID,341,VALID,0,
2010-08-23, 01:43:04,VALID,1008.1,VALID,0,VALID,101.933,VALID,0,VALID,23.9668,VALID,341,VALID,0,
2010-08-23, 01:44:04,VALID,1008.12,VALID,0,VALID,101.926,VALID,0.105969,VALID,23.926,VALID,341,VALID,0,
2010-08-23, 01:45:04,VALID,1008.12,VALID,0,VALID,101.933,VALID,0.105969,VALID,23.9455,VALID,341,VALID,0,
2010-08-23, 01:46:04,VALID,1008.12,VALID,0,VALID,101.88,VALID,0.105969,VALID,23.9668,VALID,82,VALID,0,
2010-08-23, 01:47:04,VALID,1008.09,VALID,0,VALID,101.789,VALID,0.105969,VALID,23.9863,VALID,82,VALID,0,
2010-08-23, 01:48:04,VALID,1008.09,VALID,0,VALID,101.689,VALID,0.105969,VALID,24.0058,VALID,82,VALID,0,
2010-08-23, 01:49:04,VALID,1008.06,VALID,0,VALID,101.522,VALID,0,VALID,24.0253,VALID,82,VALID,0,
2010-08-23, 01:50:04,VALID,1008.05,VALID,0,VALID,101.186,VALID,0.105969,VALID,24.0429,VALID,79,VALID,0,
2010-08-23, 01:51:04,VALID,1008.05,VALID,0,VALID,101.049,VALID,0,VALID,24.0624,VALID,79,VALID,0,
2010-08-23, 01:52:04,VALID,1008.06,VALID,0,VALID,100.82,VALID,0.105969,VALID,24.1032,VALID,79,VALID,0,
2010-08-23, 01:53:04,VALID,1008.04,VALID,0,VALID,100.858,VALID,0.105969,VALID,24.1014,VALID,79,VALID,0,
2010-08-23, 01:54:04,VALID,1008.04,VALID,0,VALID,100.965,VALID,0.105969,VALID,24.1227,VALID,79,VALID,0,
2010-08-23, 01:55:04,VALID,1008.05,VALID,0,VALID,100.995,VALID,0.105969,VALID,24.1014,VALID,79,VALID,0,
2010-08-23, 01:56:04,VALID,1008.02,VALID,0,VALID,101.011,VALID,0,VALID,24.0819,VALID,79,VALID,0,
2010-08-23, 01:57:04,VALID,1008.05,VALID,0,VALID,100.973,VALID,0.105969,VALID,24.0837,VALID,79,VALID,0,
2010-08-23, 01:58:04,VALID,1008.05,VALID,0,VALID,101.041,VALID,0.105969,VALID,24.0624,VALID,79,VALID,0,
2010-08-23, 01:59:04,VALID,1008.01,VALID,0,VALID,101.171,VALID,0.105969,VALID,24.0429,VALID,79,VALID,0,
2010-08-23, 02:00:04,VALID,1007.98,VALID,0,VALID,101.186,VALID,0,VALID,24.0624,VALID,79,VALID,0,
2010-08-23, 02:01:04,VALID,1007.94,VALID,0,VALID,101.255,VALID,0.105969,VALID,24.0429,VALID,79,VALID,0,
2010-08-23, 02:02:04,VALID,1007.96,VALID,0,VALID,101.285,VALID,0.105969,VALID,24.0429,VALID,79,VALID,0,
2010-08-23, 02:03:04,VALID,1007.94,VALID,0,VALID,101.346,VALID,0.105969,VALID,24.0448,VALID,79,VALID,0,
2010-08-23, 02:04:04,VALID,1007.88,VALID,0,VALID,101.362,VALID,0.105969,VALID,24.0253,VALID,79,VALID,0,
2010-08-23, 02:05:04,VALID,1007.93,VALID,0,VALID,101.301,VALID,0.105969,VALID,24.004,VALID,79,VALID,0,
2010-08-23, 02:06:04,VALID,1007.94,VALID,0,VALID,101.209,VALID,0,VALID,24.0058,VALID,79,VALID,0,
2010-08-23, 02:07:04,VALID,1007.9,VALID,0,VALID,101.171,VALID,0,VALID,24.0058,VALID,79,VALID,0,
2010-08-23, 02:08:04,VALID,1007.9,VALID,0,VALID,101.201,VALID,0,VALID,23.9863,VALID,79,VALID,0,
2010-08-23, 02:09:04,VALID,1007.92,VALID,0,VALID,101.346,VALID,0,VALID,24.0058,VALID,79,VALID,0,
2010-08-23, 02:10:04,VALID,1007.91,VALID,0,VALID,101.354,VALID,0.105969,VALID,23.9863,VALID,79,VALID,0,
2010-08-23, 02:11:04,VALID,1007.9,VALID,0,VALID,101.354,VALID,0,VALID,23.9863,VALID,79,VALID,0,
2010-08-23, 02:12:04,VALID,1007.87,VALID,0,VALID,101.423,VALID,0.105969,VALID,23.9668,VALID,79,VALID,0,
2010-08-23, 02:13:04,VALID,1007.88,VALID,0,VALID,101.583,VALID,0.105969,VALID,23.9668,VALID,79,VALID,0,
2010-08-23, 02:14:04,VALID,1007.88,VALID,0,VALID,101.689,VALID,0.105969,VALID,23.9455,VALID,79,VALID,0,
2010-08-23, 02:15:04,VALID,1007.89,VALID,0,VALID,101.705,VALID,0.105969,VALID,23.926,VALID,79,VALID,0,
2010-08-23, 02:16:04,VALID,1007.87,VALID,0,VALID,101.72,VALID,0.105969,VALID,23.9278,VALID,79,VALID,0,
2010-08-23, 02:17:04,VALID,1007.86,VALID,0,VALID,101.743,VALID,0.105969,VALID,23.9065,VALID,79,VALID,0,
2010-08-23, 02:18:04,VALID,1007.88,VALID,0,VALID,101.796,VALID,0.105969,VALID,23.9065,VALID,79,VALID,0,
2010-08-23, 02:19:04,VALID,1007.88,VALID,0,VALID,101.88,VALID,0.105969,VALID,23.9473,VALID,79,VALID,0,
2010-08-23, 02:20:04,VALID,1007.87,VALID,0,VALID,101.949,VALID,0.105969,VALID,23.9065,VALID,79,VALID,0,
2010-08-23, 02:21:04,VALID,1007.88,VALID,0,VALID,101.972,VALID,0.105969,VALID,23.9278,VALID,79,VALID,0,
2010-08-23, 02:22:04,VALID,1007.87,VALID,0,VALID,102.017,VALID,0.105969,VALID,23.9065,VALID,79,VALID,0,
2010-08-23, 02:23:04,VALID,1007.85,VALID,0,VALID,102.063,VALID,0,VALID,23.9084,VALID,79,VALID,0,
2010-08-23, 02:24:04,VALID,1007.86,VALID,0,VALID,102.109,VALID,0.105969,VALID,23.8871,VALID,79,VALID,0,
2010-08-23, 02:25:04,VALID,1007.89,VALID,0,VALID,102.139,VALID,0.105969,VALID,23.8889,VALID,79,VALID,0,
2010-08-23, 02:26:04,VALID,1007.91,VALID,0,VALID,102.139,VALID,0.105969,VALID,23.9084,VALID,79,VALID,0,
2010-08-23, 02:27:04,VALID,1007.92,VALID,0,VALID,102.17,VALID,0.105969,VALID,23.8871,VALID,79,VALID,0,
2010-08-23, 02:28:04,VALID,1007.94,VALID,0,VALID,102.216,VALID,0,VALID,23.8871,VALID,79,VALID,0,
2010-08-23, 02:29:04,VALID,1007.97,VALID,0,VALID,102.284,VALID,0,VALID,23.926,VALID,79,VALID,0,
2010-08-23, 02:30:04,VALID,1007.95,VALID,0,VALID,102.353,VALID,0.105969,VALID,23.926,VALID,79,VALID,0,
2010-08-23, 02:31:04,VALID,1007.97,VALID,0,VALID,102.391,VALID,0.105969,VALID,23.965,VALID,79,VALID,0,
2010-08-23, 02:32:04,VALID,1007.98,VALID,0,VALID,102.421,VALID,0.105969,VALID,24.0253,VALID,79,VALID,0,
2010-08-23, 02:33:04,VALID,1007.99,VALID,0,VALID,102.406,VALID,0,VALID,24.0429,VALID,79,VALID,0,
2010-08-23, 02:34:04,VALID,1007.98,VALID,0,VALID,102.368,VALID,0.105969,VALID,24.0837,VALID,79,VALID,0,
2010-08-23, 02:35:04,VALID,1007.98,VALID,0,VALID,102.338,VALID,0.105969,VALID,24.1032,VALID,79,VALID,0,
2010-08-23, 02:36:04,VALID,1007.95,VALID,0,VALID,102.284,VALID,0,VALID,24.1227,VALID,79,VALID,0,
2010-08-23, 02:37:04,VALID,1007.91,VALID,0,VALID,102.216,VALID,0.105969,VALID,24.1227,VALID,79,VALID,0,
2010-08-23, 02:38:04,VALID,1007.94,VALID,0,VALID,102.17,VALID,0.105969,VALID,24.1422,VALID,79,VALID,0,
2010-08-23, 02:39:04,VALID,1007.95,VALID,0,VALID,102.109,VALID,0.105969,VALID,24.1209,VALID,79,VALID,0,
2010-08-23, 02:40:04,VALID,1007.96,VALID,0,VALID,102.071,VALID,0.105969,VALID,24.1209,VALID,79,VALID,0,
2010-08-23, 02:41:04,VALID,1007.95,VALID,0,VALID,102.04,VALID,0.105969,VALID,24.1404,VALID,79,VALID,0,
2010-08-23, 02:42:04,VALID,1007.95,VALID,0,VALID,101.972,VALID,0.105969,VALID,24.1404,VALID,79,VALID,0,
2010-08-23, 02:43:04,VALID,1007.95,VALID,0,VALID,101.964,VALID,0,VALID,24.1617,VALID,79,VALID,0,
2010-08-23, 02:44:04,VALID,1007.95,VALID,0,VALID,101.88,VALID,0.105969,VALID,24.1617,VALID,79,VALID,0,
2010-08-23, 02:45:04,VALID,1007.92,VALID,0,VALID,101.895,VALID,0,VALID,24.1014,VALID,79,VALID,0,
2010-08-23, 02:46:04,VALID,1007.92,VALID,0,VALID,101.918,VALID,0.105969,VALID,24.1227,VALID,79,VALID,0,
2010-08-23, 02:47:04,VALID,1007.93,VALID,0,VALID,101.941,VALID,0.105969,VALID,24.1032,VALID,79,VALID,0,
2010-08-23, 02:48:04,VALID,1007.91,VALID,0,VALID,101.972,VALID,0.105969,VALID,24.1014,VALID,79,VALID,0,
2010-08-23, 02:49:04,VALID,1007.93,VALID,0,VALID,101.956,VALID,0.105969,VALID,24.1227,VALID,79,VALID,0,
2010-08-23, 02:50:04,VALID,1007.92,VALID,0,VALID,101.949,VALID,0,VALID,24.0819,VALID,79,VALID,0,
2010-08-23, 02:51:04,VALID,1007.93,VALID,0,VALID,101.933,VALID,0,VALID,24.0624,VALID,79,VALID,0,
2010-08-23, 02:52:04,VALID,1007.95,VALID,0,VALID,101.933,VALID,0,VALID,24.0643,VALID,79,VALID,0,
2010-08-23, 02:53:04,VALID,1007.93,VALID,0,VALID,101.933,VALID,0,VALID,24.0448,VALID,79,VALID,0,
2010-08-23, 02:54:04,VALID,1007.91,VALID,0,VALID,101.979,VALID,0,VALID,24.0253,VALID,79,VALID,0,
2010-08-23, 02:55:04,VALID,1007.93,VALID,0,VALID,102.033,VALID,0,VALID,24.0058,VALID,79,VALID,0,
2010-08-23, 02:56:04,VALID,1007.91,VALID,0,VALID,102.086,VALID,0,VALID,23.9668,VALID,79,VALID,0,
2010-08-23, 02:57:04,VALID,1007.9,VALID,0,VALID,102.155,VALID,0,VALID,23.9668,VALID,79,VALID,0,
2010-08-23, 02:58:04,VALID,1007.9,VALID,0,VALID,102.208,VALID,0,VALID,23.9668,VALID,79,VALID,0,
2010-08-23, 02:59:04,VALID,1007.88,VALID,0,VALID,102.277,VALID,0,VALID,23.9278,VALID,79,VALID,0,
2010-08-23, 03:00:04,VALID,1007.85,VALID,0,VALID,102.315,VALID,0,VALID,23.9278,VALID,79,VALID,0,
2010-08-23, 03:01:04,VALID,1007.85,VALID,0,VALID,102.33,VALID,0,VALID,23.9278,VALID,79,VALID,0,
2010-08-23, 03:02:04,VALID,1007.83,VALID,0,VALID,102.36,VALID,0,VALID,23.8889,VALID,79,VALID,0,
2010-08-23, 03:03:04,VALID,1007.82,VALID,0,VALID,102.406,VALID,0,VALID,23.8694,VALID,79,VALID,0,
2010-08-23, 03:04:04,VALID,1007.82,VALID,0,VALID,102.437,VALID,0,VALID,23.8889,VALID,79,VALID,0,
2010-08-23, 03:05:04,VALID,1007.82,VALID,0,VALID,102.475,VALID,0,VALID,23.8694,VALID,79,VALID,0,
2010-08-23, 03:06:04,VALID,1007.82,VALID,0,VALID,102.513,VALID,0,VALID,23.8481,VALID,79,VALID,0,
2010-08-23, 03:07:04,VALID,1007.81,VALID,0,VALID,102.566,VALID,0,VALID,23.8304,VALID,79,VALID,0,
2010-08-23, 03:08:04,VALID,1007.83,VALID,0,VALID,102.589,VALID,0,VALID,23.8091,VALID,79,VALID,0,
2010-08-23, 03:09:04,VALID,1007.83,VALID,0,VALID,102.612,VALID,0,VALID,23.8304,VALID,79,VALID,0,
2010-08-23, 03:10:04,VALID,1007.83,VALID,0,VALID,102.65,VALID,0,VALID,23.8109,VALID,79,VALID,0,
2010-08-23, 03:11:04,VALID,1007.84,VALID,0,VALID,102.688,VALID,0,VALID,23.8109,VALID,79,VALID,0,
2010-08-23, 03:12:04,VALID,1007.82,VALID,0,VALID,102.719,VALID,0,VALID,23.7914,VALID,79,VALID,0,
2010-08-23, 03:13:04,VALID,1007.84,VALID,0,VALID,102.757,VALID,0,VALID,23.7914,VALID,79,VALID,0,
2010-08-23, 03:14:04,VALID,1007.83,VALID,0,VALID,102.795,VALID,0,VALID,23.8322,VALID,79,VALID,0,
2010-08-23, 03:15:04,VALID,1007.86,VALID,0,VALID,102.803,VALID,0,VALID,23.8304,VALID,79,VALID,0,
2010-08-23, 03:16:05,VALID,1007.86,VALID,0,VALID,102.833,VALID,0,VALID,23.8304,VALID,79,VALID,0,
2010-08-23, 03:17:05,VALID,1007.82,VALID,0,VALID,102.826,VALID,0,VALID,23.8109,VALID,79,VALID,0,
2010-08-23, 03:18:05,VALID,1007.83,VALID,0,VALID,102.849,VALID,0,VALID,23.8304,VALID,79,VALID,0,
2010-08-23, 03:19:05,VALID,1007.83,VALID,0,VALID,102.864,VALID,0,VALID,23.8304,VALID,79,VALID,0,
2010-08-23, 03:20:05,VALID,1007.83,VALID,0,VALID,102.856,VALID,0,VALID,23.8304,VALID,79,VALID,0,
2010-08-23, 03:21:05,VALID,1007.8,VALID,0,VALID,102.849,VALID,0,VALID,23.8109,VALID,79,VALID,0,
2010-08-23, 03:22:05,VALID,1007.82,VALID,0,VALID,102.841,VALID,0,VALID,23.7896,VALID,79,VALID,0,
2010-08-23, 03:23:05,VALID,1007.78,VALID,0,VALID,102.864,VALID,0,VALID,23.8109,VALID,79,VALID,0,
2010-08-23, 03:24:05,VALID,1007.82,VALID,0,VALID,102.871,VALID,0,VALID,23.8109,VALID,79,VALID,0,
2010-08-23, 03:25:05,VALID,1007.78,VALID,0,VALID,102.849,VALID,0,VALID,23.8109,VALID,79,VALID,0,
2010-08-23, 03:26:05,VALID,1007.77,VALID,0,VALID,102.871,VALID,0,VALID,23.7914,VALID,79,VALID,0,
2010-08-23, 03:27:05,VALID,1007.79,VALID,0,VALID,102.871,VALID,0,VALID,23.7914,VALID,79,VALID,0,
2010-08-23, 03:28:05,VALID,1007.81,VALID,0,VALID,102.879,VALID,0,VALID,23.772,VALID,79,VALID,0,
2010-08-23, 03:29:05,VALID,1007.75,VALID,0,VALID,102.879,VALID,0,VALID,23.7701,VALID,79,VALID,0,
2010-08-23, 03:30:05,VALID,1007.76,VALID,0,VALID,102.879,VALID,0.105969,VALID,23.772,VALID,79,VALID,0,
2010-08-23, 03:31:05,VALID,1007.76,VALID,0,VALID,102.902,VALID,0,VALID,23.772,VALID,79,VALID,0,
2010-08-23, 03:32:05,VALID,1007.75,VALID,0,VALID,102.91,VALID,0.105969,VALID,23.7914,VALID,79,VALID,0,
2010-08-23, 03:33:05,VALID,1007.75,VALID,0,VALID,102.91,VALID,0,VALID,23.7914,VALID,79,VALID,0,
2010-08-23, 03:34:05,VALID,1007.77,VALID,0,VALID,102.917,VALID,0,VALID,23.772,VALID,79,VALID,0,
2010-08-23, 03:35:05,VALID,1007.75,VALID,0,VALID,102.925,VALID,0,VALID,23.772,VALID,79,VALID,0,
2010-08-23, 03:36:05,VALID,1007.75,VALID,0,VALID,102.932,VALID,0,VALID,23.772,VALID,79,VALID,0,
2010-08-23, 03:37:05,VALID,1007.77,VALID,0,VALID,102.948,VALID,0,VALID,23.772,VALID,79,VALID,0,
2010-08-23, 03:38:05,VALID,1007.78,VALID,0,VALID,102.948,VALID,0,VALID,23.772,VALID,79,VALID,0,
2010-08-23, 03:39:05,VALID,1007.76,VALID,0,VALID,102.963,VALID,0,VALID,23.772,VALID,79,VALID,0,
2010-08-23, 03:40:05,VALID,1007.8,VALID,0,VALID,102.955,VALID,0,VALID,23.772,VALID,79,VALID,0,
2010-08-23, 03:41:05,VALID,1007.78,VALID,0,VALID,102.94,VALID,0,VALID,23.772,VALID,79,VALID,0,
2010-08-23, 03:42:05,VALID,1007.77,VALID,0,VALID,102.948,VALID,0,VALID,23.7701,VALID,79,VALID,0,
2010-08-23, 03:43:05,VALID,1007.8,VALID,0,VALID,102.978,VALID,0.105969,VALID,23.7914,VALID,79,VALID,0,
2010-08-23, 03:44:05,VALID,1007.77,VALID,0,VALID,102.978,VALID,0,VALID,23.7701,VALID,79,VALID,0,
2010-08-23, 03:45:05,VALID,1007.8,VALID,0,VALID,102.978,VALID,0,VALID,23.8109,VALID,79,VALID,0,
2010-08-23, 03:46:05,VALID,1007.79,VALID,0,VALID,102.993,VALID,0,VALID,23.8304,VALID,79,VALID,0,
2010-08-23, 03:47:05,VALID,1007.8,VALID,0,VALID,102.978,VALID,0,VALID,23.8499,VALID,79,VALID,0,
2010-08-23, 03:48:05,VALID,1007.78,VALID,0,VALID,102.978,VALID,0,VALID,23.8499,VALID,79,VALID,0,
2010-08-23, 03:49:05,VALID,1007.79,VALID,0,VALID,102.993,VALID,0,VALID,23.8286,VALID,79,VALID,0,
2010-08-23, 03:50:05,VALID,1007.79,VALID,0,VALID,102.993,VALID,0,VALID,23.8286,VALID,79,VALID,0,
2010-08-23, 03:51:05,VALID,1007.8,VALID,0,VALID,103.009,VALID,0,VALID,23.8499,VALID,79,VALID,0,
2010-08-23, 03:52:05,VALID,1007.79,VALID,0,VALID,102.993,VALID,0.105969,VALID,23.8499,VALID,79,VALID,0,
2010-08-23, 03:53:05,VALID,1007.78,VALID,0,VALID,103.016,VALID,0,VALID,23.8091,VALID,79,VALID,0,
2010-08-23, 03:54:05,VALID,1007.81,VALID,0,VALID,103.001,VALID,0.105969,VALID,23.8304,VALID,79,VALID,0,